496  
ASUS43 KOAX 160210  
RWRNE  
 
WEATHER ROUNDUP FOR NEBRASKA  
NATIONAL WEATHER SERVICE OMAHA NE  
900 PM CDT MON OCT 15 2018  
 
NOTES: SATELLITE DATA IS BEING USED TO AUGMENT CLOUD COVER ABOVE  
12000 FEET.  
"FAIR" INDICATES FEW OR NO CLOUDS BELOW 12,000 FEET WITH NO  
SIGNIFICANT WEATHER AND/OR S TO VISIBILITY
.  
 
 
NEZ001>004-019>022-054>056-160300-  
NEBRASKA PANHANDLE  
 
CITY SKY/WX TMP DP RH WIND PRES REMARKS
 
SCOTTSBLUFF CLEAR 34 29 82 N6 30.26R WCI 29  
ALLIANCE CLEAR 28 26 92 W8 30.23S WCI 20  
CHADRON CLEAR 35 29 78 W7 30.21R WCI 29  
GORDON FAIR 40 28 61 W10 30.18S WCI 34  
KIMBALL MOCLDY 35 24 65 W13 30.28S WCI 26  
SIDNEY CLEAR 29 24 82 W10 30.28S WCI 20  

 
 
NEZ057>060-069>072-079>082-160300-  
SOUTHWEST NEBRASKA  
 
CITY SKY/WX TMP DP RH WIND PRES REMARKS
 
NORTH PLATTE CLEAR 37 22 54 W9 30.26S WCI 30  
IMPERIAL CLEAR 32 18 56 W6 30.29S WCI 26  
LEXINGTON CLEAR 36 24 63 SW7 30.27F WCI 30  
MCCOOK CLEAR 37 21 52 SW7 30.30R WCI 32  
OGALLALA CLEAR 31 25 77 SW3 30.27S  

 
 
NEZ005>010-023>029-035>040-094-160300-  
NORTH CENTRAL NEBRASKA  
 
CITY SKY/WX TMP DP RH WIND PRES REMARKS
 
VALENTINE CLEAR 41 29 62 SW12 30.16R  
AINSWORTH CLEAR 37 29 72 SW10 30.16F WCI 30  
BROKEN BOW CLEAR 35 24 64 W7 30.23S WCI 29  
O'NEILL CLEAR 36 26 67 SW8 30.17F WCI 29  
ORD CLEAR 30 23 75 S8 30.21F WCI 22  
THEDFORD CLEAR 38 26 61 SW9 30.21S WCI 31  

 
 
NEZ041-046>049-061>064-073>077-083>087-160300-  
SOUTH CENTRAL NEBRASKA  
 
CITY SKY/WX TMP DP RH WIND PRES REMARKS
 
GRAND ISLAND CLEAR 36 24 62 SW8 30.26F WCI 30  
AURORA CLEAR 35 25 67 SW6 30.27F WCI 30  
HASTINGS CLEAR 39 25 57 SW7 30.29S WCI 34  
HEBRON CLEAR 37 27 67 SW8 30.32F WCI 31  
HOLDREGE CLEAR 35 25 67 SW3 30.28F  
KEARNEY CLEAR 37 26 64 SW8 30.28S WCI 31  
YORK CLEAR 36 28 75 SW8 30.28F WCI 29  

 
 
NEZ011>018-030>034-042>045-160300-  
NORTHEAST NEBRASKA  
 
CITY SKY/WX TMP DP RH WIND PRES REMARKS
 
NORFOLK CLEAR 37 23 56 S12 30.20F WCI 29  
ALBION CLEAR 36 24 61 SE3 30.22F  
BLAIR CLEAR 37 29 73 S8 30.26F WCI 31  
COLUMBUS CLEAR 38 25 59 SW10 30.25F WCI 31  
FREMONT CLEAR 41 28 61 S9 30.27F  
TEKAMAH CLEAR 33 28 81 S7 30.25F WCI 27  
WAYNE CLEAR 32 19 57 S6 30.20F WCI 27  

 
 
NEZ050>053-065>068-078-088>093-160300-  
SOUTHEAST NEBRASKA  
 
CITY SKY/WX TMP DP RH WIND PRES REMARKS
 
LINCOLN CLEAR 36 27 69 SW7 30.31F WCI 30  
OMAHA EPPLEY CLEAR 41 26 55 S8 30.29F  
BEATRICE CLEAR 36 30 77 SW5 30.32S WCI 32  
FALLS CITY CLEAR 39 28 64 SW6 30.33S WCI 35  
NEBRASKA CITY CLEAR 34 24 67 SW6 30.32S WCI 29  
PLATTSMOUTH CLEAR 37 29 71 SW7 30.30F WCI 32  

 
 
NEZ044-045-051>053-067-160300-  
OMAHA AREA  
 
CITY SKY/WX TMP DP RH WIND PRES REMARKS
 
OMAHA EPPLEY CLEAR 41 26 55 S8 30.29F  
BLAIR CLEAR 37 29 73 S8 30.26F WCI 31  
FREMONT CLEAR 41 28 61 S9 30.27F  
MILLARD CLEAR 40 29 66 S3 30.29F  
OFFUTT AFB CLEAR 38 27 63 S7 30.29F WCI 33  
PLATTSMOUTH CLEAR 37 29 71 SW7 30.30F WCI 32  
WAHOO FAIR 38 28 69 SW8 30.27F WCI 32  

 
 
 
CLICK HERE TO GO TO PREVIOUS BULLETINS.

The Nexlab NE Page Main Text Page